Back to catalog

FENGYUN 1C DEB

AlivePO
NORAD 31673·DEBRIS·🇨🇳 China

Launched May 10, 1999 from Taiyuan Satellite Launch Center

Loading…

Next Passes (next 24 hours)

TLE

FreshSource: Space-Track

Epoch: Sep 13, 2026, 21:06 UTC

1 31673U 99025CCF 26256.87975752  .00000328  00000-0  12977-3 0  9998
2 31673  99.3499 118.1903 0124326 336.5955  22.9597 14.32278755688293

Track FENGYUN 1C DEB in real time with AllMySat

Download on the App Store